Location: Elaine Barite Prospect
(34.1431°N, 106.7922°W)
Time: 05:40:17
(UTC+00:00)

Meteor 2-2 Rocket - Pass Details

Date: 13 December 2025
Orbit: 852 x 927 km, 81.3° (Epoch: 12 January)

Event Time Altitude Azimuth Distance (km) Brightness Sun altitude
Exits shadow 12:49:27 - 346° (NNW) 3,433 7.1 -15.1°
Reaches altitude 10° 12:51:50 10° 342° (NNW) 2,530 6.3 -14.7°
Maximum altitude 12:57:25 55° 266° (W) 1,057 4.4 -13.6°
Drops below altitude 10° 13:03:06 10° 190° (S) 2,566 6.8 -12.5°
Sets 13:05:37 0° 186° (S) 3,514 7.6 -12.0°
